{"data":{"norad_id":56061,"intl_designator":"2023-043R","name":"ONEWEB-0566","alt_names":[],"object_type":"PAYLOAD","status":"ACTIVE","operator":null,"country":"UK","launch_date":"2023-03-26","launch_site_code":"SRILR","launch_vehicle":null,"mission":null,"orbit_class":"UNKNOWN","rcs_meters":null,"size_class":null,"mass_kg":null,"dimensions":null,"purposes":["comms"],"wikipedia_slug":null,"has_3d_model":false,"image_url":null,"decayed_at":null,"tle_current":{"epoch":"2026-05-25T00:50:59.221824Z","epoch_age_seconds":69089,"freshness":"FRESH","line1":"1 56061U 23043R   26145.03540766  .00000075  00000+0  15004-3 0  9993","line2":"2 56061  87.9253 248.5778 0001641 100.6955 259.4364 13.21825636155172","mean_motion":13.21825636,"eccentricity":0.0001641,"inclination_deg":87.9253,"raan_deg":248.5778,"arg_perigee_deg":100.6955,"mean_anomaly_deg":259.4364,"bstar":0.00015004,"rev_number":15517,"period_min":108.94023846879,"perigee_km":1176.5148336749,"apogee_km":1178.9946773491,"semimajor_km":7555.891755512,"source":"CELESTRAK","updated_at":"2026-05-25T13:38:22.703014Z"}}}